Stations météo

réclame
Mon MeteoGroup
Eskilstuna, Suède (2449): Température de l'air & dewpoint: 12.01.2019 13:00:00 - 18.01.2019 13:00:00 (CET)Eskilstuna, Suède (2449): Vitesse du vent & gusts: 12.01.2019 13:00:00 - 18.01.2019 13:00:00 (CET)Eskilstuna, Suède (2449): Direction du vent: 12.01.2019 13:00:00 - 18.01.2019 13:00:00 (CET)Eskilstuna, Suède (2449): reduced air pressure: 12.01.2019 13:00:00 - 18.01.2019 13:00:00 (CET)Eskilstuna, Suède (2449): visibility: 12.01.2019 13:00:00 - 18.01.2019 13:00:00 (CET)Eskilstuna, Suède (2449): Quantités de précipitations: 12.01.2019 13:00:00 - 18.01.2019 13:00:00 (CET)
Date & Time tt [°C] td [°C] ff [km/h] ff [knt] fx [km/h] fx [knt] dd ppp [hPa] vv [km] rr [mm]
18.01.2019 13:00:00 - - - - - - - - - -
18.01.2019 12:00:00 -4,6 -10,4 20 11 31 17 W 1004,5 14 0,0
18.01.2019 11:00:00 -5,6 -10,6 16 9 29 15 W 1004,2 32 0,0
18.01.2019 10:00:00 -6,4 -10,6 19 11 29 15 W 1004,0 29 0,0
18.01.2019 09:00:00 -7,9 -11,9 16 9 24 13 W 1003,3 21 0,0
18.01.2019 08:00:00 -8,2 -12,0 16 9 21 12 W 1002,8 20 0,0
18.01.2019 07:00:00 -8,6 -12,2 11 6 18 10 W 1002,3 25 0,0
18.01.2019 06:00:00 -9,0 -12,6 10 5 25 14 WSW 1001,7 24 0,0
18.01.2019 05:00:00 -8,3 -12,1 13 7 27 14 W 1001,3 22 0,0
18.01.2019 04:00:00 - - - - 28 15 - - - -
18.01.2019 03:00:00 -7,1 -10,9 15 8 28 15 W 1000,3 22 0,0
18.01.2019 02:00:00 -8,9 -12,0 12 6 23 12 W 999,8 18 0,0
18.01.2019 01:00:00 -9,5 -12,9 6 3 11 6 WSW 999,5 15 0,0
18.01.2019 00:00:00 -9,6 -12,9 4 2 14 8 SSW 999,1 14 0,0
17.01.2019 23:00:00 -9,0 -12,3 5 3 14 8 WSW 998,7 11 0,0
17.01.2019 22:00:00 -8,7 -12,0 7 4 15 8 WSW 998,0 12 0,0
17.01.2019 21:00:00 -8,8 -11,8 8 4 15 8 WSW 997,7 12 0,0
17.01.2019 20:00:00 -8,5 -11,2 7 4 16 9 WSW 997,0 22 0,0
17.01.2019 19:00:00 -7,8 -11,0 5 3 21 12 W 996,4 14 0,0
17.01.2019 18:00:00 -6,6 -9,8 10 5 23 12 NW 995,7 11 0,0
17.01.2019 17:00:00 -5,2 -8,6 11 6 23 13 NNW 994,7 34 0,0
17.01.2019 16:00:00 -3,3 -7,3 13 7 28 15 NNW 993,6 23 0,0
17.01.2019 15:00:00 -3,0 -7,3 13 7 28 15 N 992,5 23 0,0
17.01.2019 14:00:00 -2,1 -5,8 12 6 27 14 N 991,2 25 0,0
17.01.2019 13:00:00 -3,0 -6,3 13 7 27 15 NNW 990,1 16 0,0
17.01.2019 12:00:00 -3,1 -6,1 19 10 27 15 NNW 989,2 19 0,0
17.01.2019 11:00:00 -3,7 -6,5 15 8 25 13 NW 988,0 15 0,0
17.01.2019 10:00:00 -4,5 -7,3 15 8 25 13 WNW 987,0 12 0,0
17.01.2019 09:00:00 -5,1 -7,8 16 8 28 15 WNW 985,9 19 0,0
17.01.2019 08:00:00 -5,4 -8,3 12 6 28 15 W 984,4 11 -
17.01.2019 07:00:00 -5,6 -8,5 13 7 24 13 WNW 983,2 11 0,0
17.01.2019 06:00:00 -5,8 -8,9 16 9 24 13 W 982,7 12 0,0
17.01.2019 05:00:00 -5,7 -8,8 14 8 22 12 W 982,5 31 0,0
17.01.2019 04:00:00 -4,9 -8,0 14 8 36 19 W 982,2 46 0,0
17.01.2019 03:00:00 -3,9 -6,7 18 10 36 19 NW 981,9 50 0,0
17.01.2019 02:00:00 -1,5 -4,0 19 11 33 18 NW 981,2 36 0,0
17.01.2019 01:00:00 1,1 -1,0 12 6 32 17 W 979,9 13 0,1
17.01.2019 00:00:00 1,8 0,2 22 12 32 18 NW 979,9 4,1 0,2
16.01.2019 23:00:00 1,4 -0,6 4 2 11 6 SSW 979,7 8 0,5
16.01.2019 22:00:00 1,0 -0,6 5 3 25 14 SSE 980,6 4,2 1,2
16.01.2019 21:00:00 1,0 -0,8 3 2 25 14 N 981,2 2,4 2,3
16.01.2019 20:00:00 3,5 1,9 11 6 25 13 SW 981,0 8 1,2
16.01.2019 19:00:00 2,7 1,1 10 5 25 13 SW 981,9 17 0,1
16.01.2019 18:00:00 1,3 -0,3 7 4 16 9 SSW 983,2 16 0,3
16.01.2019 17:00:00 -0,4 -2,0 4 2 23 12 SSE 984,9 4,4 1,0
16.01.2019 16:00:00 -1,7 -3,3 5 3 25 14 SE 987,0 2,8 1,8
16.01.2019 15:00:00 -2,5 -4,1 12 7 25 14 ESE 988,6 0,5 1,3
16.01.2019 14:00:00 -3,1 -5,0 9 5 17 9 ESE 991,1 0,8 1,0
16.01.2019 13:00:00 -4,3 -6,9 4 2 11 6 SE 993,4 2,1 0,2
16.01.2019 12:00:00 -5,9 -8,8 3 2 11 6 SE 995,4 12 0,0
16.01.2019 11:00:00 -7,2 -10,5 2 1 5 3 SE 996,5 15 0,0
16.01.2019 10:00:00 -8,6 -11,9 0 0 4 2 N 997,3 27 0,0
16.01.2019 09:00:00 -10,3 -13,9 0 0 5 3 N 998,1 27 0,0
16.01.2019 08:00:00 -11,1 -14,3 0 0 5 3 N 998,4 30 0,0
16.01.2019 07:00:00 -12,7 -16,0 0 0 7 4 N 998,4 28 0,0
16.01.2019 06:00:00 -14,3 -17,9 0 0 7 4 N 998,5 20 0,0
16.01.2019 05:00:00 -12,8 -15,5 3 2 5 3 SW 998,6 23 0,0
16.01.2019 04:00:00 -12,7 -15,9 0 0 5 3 N 998,6 19 0,0
16.01.2019 03:00:00 -13,1 -16,8 0 0 9 5 N 998,5 43 0,0
16.01.2019 02:00:00 -11,6 -15,0 0 0 9 5 N 997,9 8 0,0
16.01.2019 01:00:00 -11,4 -14,8 0 0 8 5 N 997,4 12 0,0
16.01.2019 00:00:00 -9,8 -12,4 0 0 11 6 N 997,2 13 0,0
15.01.2019 23:00:00 -7,5 -10,5 5 3 14 7 W 996,6 15 0,0
15.01.2019 22:00:00 -8,9 -11,7 11 6 14 7 W 995,9 13 0,0
15.01.2019 21:00:00 -9,6 -13,0 3 2 5 3 SW 995,4 10 0,0
15.01.2019 20:00:00 -9,1 -12,7 0 0 5 3 N 994,7 10 0,0
15.01.2019 19:00:00 -8,6 -13,3 3 1 8 4 SW 994,3 10 0,0
15.01.2019 18:00:00 -4,5 -10,5 3 2 8 4 WSW 994,3 11 0,0
15.01.2019 17:00:00 -4,6 -9,2 6 3 9 5 W 994,3 14 0,0
15.01.2019 16:00:00 -4,6 -9,6 6 3 11 6 W 994,4 11 0,0
15.01.2019 15:00:00 -4,0 -10,0 5 3 17 9 W 994,5 16 0,0
15.01.2019 14:00:00 -4,2 -10,2 8 4 19 10 WSW 994,8 9 0,0
15.01.2019 13:00:00 -4,0 -10,0 11 6 19 11 W 995,7 14 0,0
15.01.2019 12:00:00 -4,2 -10,0 10 6 19 11 WSW 995,7 13 0,0
15.01.2019 11:00:00 - - - - 22 12 - - - -
15.01.2019 10:00:00 -4,7 -10,7 8 4 22 12 WNW 996,3 10 0,0
15.01.2019 09:00:00 -5,1 -10,3 16 8 22 12 W 996,7 11 0,0
15.01.2019 08:00:00 -5,1 -10,5 14 8 29 16 W 996,4 12 0,0
15.01.2019 07:00:00 -2,9 -9,0 16 9 31 17 WNW 995,6 11 0,0
15.01.2019 06:00:00 -2,1 -8,6 20 11 37 20 NW 995,2 13 0,0
15.01.2019 05:00:00 -2,5 -8,6 19 11 37 20 WNW 994,4 11 0,0
15.01.2019 04:00:00 -2,3 -8,6 22 12 37 20 WNW 993,7 13 0,0
15.01.2019 03:00:00 -2,5 -9,0 26 14 46 25 WNW 993,3 12 0,0
15.01.2019 02:00:00 -1,9 -9,5 26 14 46 25 WNW 992,4 13 0,0
15.01.2019 01:00:00 -1,6 -10,4 27 15 47 25 NW 992,1 14 0,0
15.01.2019 00:00:00 -1,3 -10,6 29 15 47 25 NW 991,3 11 0,0
14.01.2019 23:00:00 -1,7 -9,8 29 15 45 24 WNW 990,9 16 0,0
14.01.2019 22:00:00 -1,2 -8,6 29 16 45 24 WNW 990,3 14 0,0
14.01.2019 21:00:00 -1,0 -7,8 29 16 45 24 WNW 989,7 12 0,0
14.01.2019 20:00:00 -1,4 -7,7 26 14 42 23 WNW 988,7 16 0,0
14.01.2019 19:00:00 -2,1 -8,8 17 9 39 21 WNW 988,6 14 0,0
14.01.2019 18:00:00 -1,8 -7,7 22 12 39 21 WNW 988,2 13 0,0
14.01.2019 17:00:00 -2,8 -7,7 15 8 27 15 W 987,5 16 0,0
14.01.2019 16:00:00 -2,1 -7,2 16 9 34 18 WNW 986,6 12 0,0
14.01.2019 15:00:00 -2,6 -8,5 17 9 34 18 WNW 985,3 12 0,0
14.01.2019 14:00:00 -2,2 -8,9 20 11 39 21 WNW 983,7 12 0,0
14.01.2019 13:00:00 -2,4 -9,6 22 12 40 21 WNW 983,1 11 0,0
14.01.2019 12:00:00 -3,6 -10,5 19 10 38 21 W 982,6 13 0,0
14.01.2019 11:00:00 -4,5 -11,1 21 12 31 17 W 982,6 12 0,0
14.01.2019 10:00:00 -5,7 -11,4 20 11 32 17 W 982,7 20 0,0
14.01.2019 09:00:00 -6,4 -11,3 19 10 32 17 W 983,2 16 0,0
14.01.2019 08:00:00 -7,9 -12,2 16 8 26 14 W 982,5 14 0,0
14.01.2019 07:00:00 -6,8 -11,4 18 10 26 14 W 982,0 12 0,0
14.01.2019 06:00:00 -6,5 -11,2 18 10 29 16 W 981,8 12 0,0
14.01.2019 05:00:00 -5,9 -10,9 17 9 29 16 WNW 981,2 15 0,0
14.01.2019 04:00:00 -5,7 -10,7 17 9 33 18 WNW 980,9 9 0,0
14.01.2019 03:00:00 -5,1 -10,1 17 9 33 18 WNW 980,1 26 0,0
14.01.2019 02:00:00 -4,7 -9,9 19 10 29 16 WNW 979,7 19 0,0
14.01.2019 01:00:00 -4,2 -9,2 19 10 29 16 NW 979,1 13 0,0
14.01.2019 00:00:00 -3,6 -7,9 19 10 29 15 NW 978,6 12 0,0
13.01.2019 23:00:00 -2,7 -6,2 17 9 25 14 NW 978,2 13 0,0
13.01.2019 22:00:00 -2,7 -5,7 14 8 24 13 NW 977,6 16 0,0
13.01.2019 21:00:00 -2,0 -4,7 10 5 16 8 WNW 977,1 13 0,0
13.01.2019 20:00:00 -2,0 -3,9 8 5 15 8 NW 976,6 10 0,2
13.01.2019 19:00:00 -2,7 -5,5 3 2 6 3 NW 976,1 6 0,1
13.01.2019 18:00:00 -2,4 -5,1 3 2 6 4 WNW 976,0 1,7 0,3
13.01.2019 17:00:00 -2,3 -4,8 2 1 7 4 WSW 976,2 1,4 0,3
13.01.2019 16:00:00 -2,2 -4,9 3 1 8 5 S 976,5 2,9 0,1
13.01.2019 15:00:00 -2,3 -5,1 2 1 9 5 SE 977,3 8 0,1
13.01.2019 14:00:00 -2,2 -4,9 3 2 10 6 S 978,4 4,5 0,1
13.01.2019 13:00:00 -2,5 -5,1 2 1 17 9 SE 979,8 2,9 0,2
13.01.2019 12:00:00 -2,8 -4,9 4 2 18 10 SSW 981,2 7 0,0
13.01.2019 11:00:00 -3,2 -5,2 8 5 16 8 SSW 982,9 8 0,0
13.01.2019 10:00:00 -3,7 -5,9 5 3 22 12 SSW 984,5 9 0,0
13.01.2019 09:00:00 -4,1 -5,8 5 3 22 12 SSW 986,0 3,8 0,0
13.01.2019 08:00:00 -4,6 -6,6 10 6 19 10 WSW 987,6 15 0,0
13.01.2019 07:00:00 -4,4 -6,5 7 4 13 7 SW 988,5 13 0,0
13.01.2019 06:00:00 -6,9 -9,5 2 1 5 3 S 989,5 13 0,0
13.01.2019 05:00:00 -6,4 -9,3 0 0 5 3 N 990,8 14 0,0
13.01.2019 04:00:00 -5,8 -9,3 0 0 7 4 N 991,8 20 0,0
13.01.2019 03:00:00 -5,0 -7,9 4 2 7 4 WSW 993,1 18 0,0
13.01.2019 02:00:00 -5,5 -8,4 0 0 6 4 N 993,7 13 0,0
13.01.2019 01:00:00 -6,3 -9,2 3 2 5 3 SSW 994,0 15 0,0
13.01.2019 00:00:00 -7,1 -10,0 0 0 5 3 N 994,9 11 0,0
12.01.2019 23:00:00 -7,4 -10,7 0 0 7 4 N 995,3 16 0,0
12.01.2019 22:00:00 -5,5 -8,2 4 2 7 4 WSW 995,6 16 0,0
12.01.2019 21:00:00 -5,2 -8,4 0 0 4 2 N 995,9 39 0,0
12.01.2019 20:00:00 -4,7 -7,8 0 0 4 2 N 996,6 30 0,0
12.01.2019 19:00:00 -4,6 -8,2 0 0 3 1 N 996,7 24 0,0
12.01.2019 18:00:00 -4,6 -8,5 0 0 3 2 N 996,6 31 0,0
12.01.2019 17:00:00 -4,9 -9,3 0 0 6 3 N 997,1 30 0,0
12.01.2019 16:00:00 -3,2 -8,3 2 1 10 5 SW 997,4 34 0,0
12.01.2019 15:00:00 -0,8 -7,8 3 1 13 7 SW 997,8 37 0,0
12.01.2019 14:00:00 -1,3 -6,6 8 4 13 7 WSW 998,4 41 0,0
12.01.2019 13:00:00 -1,4 -7,1 7 4 13 7 WSW 999,0 39 0,0

tt = Température de l'air
td = dewpoint
ff = Vitesse du vent
fx = gusts
dd = Direction du vent
ppp = reduced air pressure
vv = visibility
rr = Quantités de précipitations

stations d'obs. à proximité